Regional Weather Roundup
Issued by NWS Grand Forks, ND

Home | Current Version | Previous Version | Text Only | Print | Product List | Glossary On
Versions: 1 2 3 4 5 6 7 8 9 10 11 12 13 14 15 16 17 18 19 20 21 22 23 24 25 26 27 28 29 30 31 32 33 34 35 36 37 38 39 40 41 42 43 44 45 46 47 48 49 50
000
ASUS43 KFGF 280631
RWRFGF
PRAIRIE TO PINES  WEATHER ROUNDUP
NATIONAL WEATHER SERVICE EASTERN NORTH DAKOTA/GRAND FORKS ND
100 AM CDT TUE APR 28 2015

 **SATELLITE DATA USED TO AUGMENT SKY COVER AT AUTOMATED STATIONS**
 *****  WEATHER ACROSS EASTERN NORTH DAKOTA  *****

CITY           SKY/WX    TMP DP  RH WIND       PRES   REMARKS
GRAND FORKS    CLOUDY    45  43  93 N3        30.26S
6HR MIN TEMP:  45; 6HR MAX TEMP:  56; 6HR PCP:  0.03;

GRAND FRKS AFB FOG       41  41 100 N3        30.26S VSB 1/4
GRAND FRKS NWS   N/A     43 N/A N/A VRB3        N/A
DEVILS LAKE      N/A     36  32  87 NW8       30.28R VSB 3/4
6HR MIN TEMP:  37; 6HR MAX TEMP:  48;

FARGO          LGT RAIN  49  43  80 N12       30.24R
WAHPETON ARPT  CLOUDY    50  37  62 N12G22    30.23R
$$

 ***** WEATHER ACROSS CENTRAL AND WESTERN NORTH DAKOTA  *****

CITY           SKY/WX    TMP DP  RH WIND       PRES   REMARKS
BISMARCK       CLEAR     41  38  89 NW5       30.31S
6HR MIN TEMP:  40; 6HR MAX TEMP:  50;

MINOT          CLEAR     42  37  82 SW12      30.28R
6HR MIN TEMP:  42; 6HR MAX TEMP:  53;

JAMESTOWN      MOCLDY    44  42  93 NW8       30.26S
6HR MIN TEMP:  42; 6HR MAX TEMP:  54; 6HR PCP:  0.03;

MINOT AFB      CLEAR     40  40 100 W10       30.27R
GARRISON         N/A     37  34  89 W3        30.30R
WILLISTON      CLEAR     42  36  79 S5        30.30S
6HR MIN TEMP:  40; 6HR MAX TEMP:  58;

DICKINSON      PTCLDY    34  31  88 W8        30.31R
6HR MIN TEMP:  34; 6HR MAX TEMP:  48;

HETTINGER      CLEAR     32  31  96 CALM      30.34R FOG
6HR MIN TEMP:  30; 6HR MAX TEMP:  47;

$$

 *****  OTHER AIRPORT OBSERVATIONS IN OUR AREA  *****

CITY           SKY/WX    TMP DP  RH WIND       PRES   REMARKS
WALHALLA       FOG       36  36 100 CALM      30.27S VSB 1/2
GRAFTON AIRPOR FOG       39  39 100 CALM      30.27S VSB<1/4
VALLEY CITY AR CLOUDY    45  45 100 N12       30.26R
CANDO          FOG       30  30 100 W6        30.29R VSB 1/2 WCI  24
CAVALIER APRT  FOG       36  36 100 CALM      30.27S VSB<1/4
GWINNER        CLOUDY    48  46  93 N10       30.27R
ROLLA          NOT AVBL
 ***** THE ABOVE OBSERVATIONS ARE NON NWS ARE NOT QUALITY
       CONTROLLED AND MAY MIS-REPORT RAIN FOR SNOW...
$$

  *****  WEATHER ACROSS NORTHERN MINNESOTA  *****

CITY           SKY/WX    TMP DP  RH WIND       PRES   REMARKS
FLAG ISLAND    DRIZZLE   45  41  87 NW12      30.23R
WARROAD        DRIZZLE   45  41  87 NW5       30.25R
ROSEAU         CLOUDY    46  41  81 NW7       30.24S
HALLOCK        FOG       39  37  93 N6        30.26F VSB 1/4
THF RVR FALLS  CLOUDY    45  43  93 NW12      30.24S
6HR MIN TEMP:  45; 6HR MAX TEMP:  61;

BAUDETTE       CLOUDY    45  41  86 NW12      30.21S
6HR MIN TEMP:  45; 6HR MAX TEMP:  64;

WASKISH        CLOUDY    48  43  81 N9        30.20R
CROOKSTON      LGT RAIN  45  45 100 N16       30.25S
$$
  *****  WEATHER ACROSS CENTRAL AND WEST MINNESOTA  *****

CITY           SKY/WX    TMP DP  RH WIND       PRES   REMARKS
FOSSTON        CLOUDY    46  39  76 N5        30.23R
BEMIDJI        MOCLDY    51  43  72 N10       30.18S
PARK RAPIDS    PTCLDY    55  37  50 N9        30.16S
6HR MIN TEMP:  49; 6HR MAX TEMP:  71;

ELBOW LAKE     MOCLDY    51  42  70 N12G17    30.18R
6HR MIN TEMP:  48; 6HR MAX TEMP:  67;

WADENA         MOCLDY    46  34  61 N6        30.16S
DETROIT LAKES  CLOUDY    50  43  76 N9G17     30.21F
MOORHEAD       DRIZZLE   46  43  87 N14       30.24F
FERGUS FALLS   MOCLDY    52  39  62 N12G17    30.20S
MORRIS MN      CLEAR     48  39  71 NW15      30.17S
STAPLES        CLEAR     43  30  61 NW6       30.15R
$$
  *****  WEATHER ELSEWHERE ACROSS MINNESOTA  *****

CITY           SKY/WX    TMP DP  RH WIND       PRES   REMARKS
DULUTH         PTCLDY    46  27  47 E3        30.14S
6HR MIN TEMP:  45; 6HR MAX TEMP:  67;

INTRNTL FALLS  CLOUDY    50  39  66 NW7       30.16R
6HR MIN TEMP:  43; 6HR MAX TEMP:  65;

ELY            PTCLDY    36  28  75 CALM      30.14S
CLOQUET        PTCLDY    36  28  75 CALM      30.14S
WHEATON        PTCLDY    50  39  66 NW15      30.23S
BRAINERD       CLEAR     40  28  62 CALM      30.14S
6HR MIN TEMP:  40; 6HR MAX TEMP:  68;

HIBBING        PTCLDY    39  28  64 CALM      30.14S
6HR MIN TEMP:  39; 6HR MAX TEMP:  68;

ALEXANDRIA     CLEAR     49  34  56 NW6       30.18R
6HR MIN TEMP:  44; 6HR MAX TEMP:  66;

SAINT CLOUD    CLEAR     42  33  70 CALM      30.14R
6HR MIN TEMP:  42; 6HR MAX TEMP:  69;

MINNEAPOLIS    MOCLDY    52  37  56 CALM      30.15R
6HR MIN TEMP:  52; 6HR MAX TEMP:  68;

$$

  *****  WEATHER ACROSS SOUTH DAKOTA  *****

CITY           SKY/WX    TMP DP  RH WIND       PRES   REMARKS
SIOUX FALLS    FAIR      45  31  58 CALM      30.20R
6HR MIN TEMP:  44; 6HR MAX TEMP:  66;

BROOKINGS      CLEAR     41  28  60 NW9G16    30.22R
WATERTOWN      CLEAR     45  37  73 N9        30.22R
6HR MIN TEMP:  44; 6HR MAX TEMP:  67;

HURON          PTCLDY    49  41  74 NW13      30.25R
6HR MIN TEMP:  49; 6HR MAX TEMP:  71;

SISSETON         N/A     51  43  74 N14       30.22S
ABERDEEN       CLOUDY    49  43  80 N13       30.27F
6HR MIN TEMP:  48; 6HR MAX TEMP:  68;

MITCHELL       CLEAR     50  43  77 NW13      30.24R
PIERRE         CLOUDY    47  43  86 NW6       30.31S
6HR MIN TEMP:  47; 6HR MAX TEMP:  58; 6HR PCP: TRACE;

MOBRIDGE       MOCLDY    40  38  93 N6        30.28R FOG
RAPID CITY     CLOUDY    42  38  85 N3        30.35S
6HR MIN TEMP:  41; 6HR MAX TEMP:  47; 6HR PCP: TRACE;

$$

  *****  SOME WEATHER IN NEARBY STATES *****

CITY           SKY/WX    TMP DP  RH WIND       PRES   REMARKS
GLASGOW MT     CLEAR     41  34  76 SE10      30.28S
6HR MIN TEMP:  41; 6HR MAX TEMP:  58;

GREAT FALLS MT CLEAR     45  32  60 S12       30.20F
6HR MIN TEMP:  42; 6HR MAX TEMP:  64;

CHEYENNE WY    CLOUDY    40  36  86 N5        30.36R
6HR MIN TEMP:  40; 6HR MAX TEMP:  44;

SCOTTSBLUFF NE CLOUDY    47  41  80 N5        30.36R
6HR MIN TEMP:  47; 6HR MAX TEMP:  54;

OMAHA NE       MOCLDY    44  39  82 NW7       30.18R
6HR MIN TEMP:  44; 6HR MAX TEMP:  69;

DES MOINES IA  CLEAR     52  37  56 CALM      30.16S
6HR MIN TEMP:  50; 6HR MAX TEMP:  67;

DAVENPORT IA   CLEAR     44  34  67 CALM      30.12S
6HR MIN TEMP:  41; 6HR MAX TEMP:  62;

CHICAGO IL     CLEAR     38  32  79 CALM      30.11S
6HR MIN TEMP:  38; 6HR MAX TEMP:  50;

EAU CLAIRE WI  CLEAR     44  30  57 CALM      30.14S
6HR MIN TEMP:  41; 6HR MAX TEMP:  68;

LA CROSSE WI   CLEAR     50  40  68 NW7       30.13R
6HR MIN TEMP:  46; 6HR MAX TEMP:  68;

$$

  *****  SOME NATIONAL WEATHER *****

CITY           SKY/WX    TMP DP  RH WIND       PRES   REMARKS
LA GUARDIA NY  MOCLDY    51  38  60 NW13      29.72S
6HR MIN TEMP:  51; 6HR MAX TEMP:  57;

RALEIGH NC     CLEAR     43  36  76 CALM      29.93S
6HR MIN TEMP:  43; 6HR MAX TEMP:  61;

ATLANTA GA     CLOUDY    57  39  51 N7        29.88S
6HR MIN TEMP:  56; 6HR MAX TEMP:  63;

NEW ORLEANS LA CLOUDY    69  64  84 E8        29.73R
6HR MIN TEMP:  66; 6HR MAX TEMP:  71; 6HR PCP:  0.57;

OKLAHOMA CITY  CLOUDY    52  46  82 N15       30.05R
6HR MIN TEMP:  49; 6HR MAX TEMP:  51; 6HR PCP:  0.03;

ALBUQUERQUE NM MOCLDY    49  32  52 E12       30.25R
6HR MIN TEMP:  46; 6HR MAX TEMP:  60; 6HR PCP:  0.01;

SALT LAKE CITY CLEAR     49  40  71 SE3       30.23R
6HR MIN TEMP:  49; 6HR MAX TEMP:  60;

LOS ANGELES CA CLEAR     64  50  60 W6        29.96R
6HR MIN TEMP:  64; 6HR MAX TEMP:  74;

BOISE ID       CLEAR     55  26  32 SE9       30.20S


USA.gov is the U.S. government's official web portal to all federal, state and local government web resources and services.